Location: Maslives
(47.6335°N, 1.4792°E)
Time: 04:10:13
(UTC+00:00)

Cosmos 2263 Rocket - Visible Passes

Search period start: 06 June 2026 00:00
Search period end: 16 June 2026 00:00
Orbit: 824 x 845 km, 71.0° (Epoch: 5 June)

Date Brightness Start Highest point End Pass type
(mag) Time Alt. Az. Time Alt. Az. Time Alt. Az.
6 Jun 4.4 21:52:11 10° WSW 21:56:48 26° NW 22:01:27 10° N visible
7 Jun 5.4 03:14:05 10° N 03:16:58 14° NE 03:19:51 10° ENE visible
7 Jun 4.4 21:34:48 10° WSW 21:39:33 28° NW 21:44:19 10° N visible
8 Jun 5.5 02:57:01 10° N 02:59:39 13° NE 03:02:17 10° ENE visible
8 Jun 4.3 21:17:26 10° WSW 21:22:17 30° NW 21:27:09 10° NNE visible
9 Jun 5.6 02:39:58 10° N 02:42:21 13° NNE 02:44:42 10° ENE visible
9 Jun 4.2 21:00:05 10° WSW 21:05:02 32° NW 21:10:00 10° NNE visible
10 Jun 5.7 02:22:59 10° N 02:25:01 12° NNE 02:27:04 10° NE visible
10 Jun 4.1 20:42:44 10° WSW 20:47:47 34° NW 20:52:50 10° NNE visible
11 Jun 5.8 02:06:02 10° NNE 02:07:42 11° NNE 02:09:23 10° NE visible
11 Jun 4.0 20:25:24 10° WSW 20:30:31 37° NW 20:35:41 10° NNE visible
11 Jun 5.9 22:15:31 10° NW 22:16:12 10° NNW 22:16:52 10° NNW visible
12 Jun 5.9 01:49:11 10° NNE 01:50:22 11° NNE 01:51:34 10° NE visible
12 Jun 5.9 21:57:32 10° NW 21:58:52 11° NNW 22:00:13 10° NNW visible
13 Jun 5.9 01:32:44 10° NNE 01:33:03 10° NNE 01:33:22 10° NNE visible
13 Jun 4.1 03:13:36 10° NNW 03:18:45 36° NE 03:23:52 10° ESE visible
13 Jun 5.8 21:39:45 10° NW 21:41:32 11° NNW 21:43:19 10° NNW visible
14 Jun 4.2 02:56:26 10° NNW 03:01:29 33° NE 03:06:32 10° ESE visible
14 Jun 5.7 21:22:05 10° NW 21:24:13 12° NNW 21:26:21 10° N visible
15 Jun 4.3 02:39:17 10° NNW 02:44:14 31° NE 02:49:12 10° ESE visible
15 Jun 5.6 21:04:28 10° WNW 21:06:54 13° NNW 21:09:21 10° N visible
